STARLINK-33882 (63788 NORAD) Tracking and Keplerian Element Data

This shows tracking and keplerian element data for the satellite.

Feedback or suggestion? Click here.




ElementValue
Catalog63788
NameSTARLINK-33882
Epoch Orbit3662
Epoch Day353.46876914
Epoch Year2025
RAAN145.5521
Inclination43.0009
Eccentricity0.0001482
Argument of Perigee269.0715
Mean Anonmoly90.9967
Mean Motion15.27591235
Decay Rate0.00026247
L11 63788U 25091P 25353.46876914 .00026247 00000+0 95960-3 0 9994
L22 63788 43.0009 145.5521 0001482 269.0715 90.9967 15.27591235 36625



Live tracking and technical data element details for STARLINK-33882 (NORAD 63788). STARLINK-33882 can be tracked NOW for your location showing map with azimuth and elevation plus other details from your city location.







IsCatalogInMostPopularTable: catalog: 63788, numindb: 2
Update: records affected: 1



GetName: 63788 STARLINK-33882

Hit Count: updated at: Sun, 08 Feb 2026 07:26:59 GMT